Location: Berlin
(52.5171°N, 13.4421°E)
Time: 09:43:05
(UTC+02:00)

ISS - Visible Passes

Search period start: 22 April 2026 00:00
Search period end: 02 May 2026 00:00
Orbit: 415 x 425 km, 51.6° (Epoch: 21 April)

Date Brightness Start Highest point End Pass type
(mag) Time Alt. Az. Time Alt. Az. Time Alt. Az.
22 Apr -1.1 03:56:54 10° SE 03:57:19 10° SE 03:57:45 10° SE visible
23 Apr -2.3 04:43:38 12° SSW 04:46:11 28° SSE 04:49:09 10° E visible
24 Apr -2.0 03:57:59 18° S 03:58:58 21° SSE 04:01:36 10° E visible
25 Apr -1.5 03:12:17 15° SE 03:12:17 15° SE 03:13:49 10° ESE visible
25 Apr -3.3 04:45:14 13° SW 04:48:03 48° SSE 04:51:20 10° E visible
26 Apr -3.0 03:59:29 27° SSW 04:00:44 37° SSE 04:03:53 10° E visible
27 Apr -2.5 03:13:41 28° SE 03:13:41 28° SE 03:16:23 10° E visible
27 Apr -3.7 04:46:38 10° WSW 04:49:57 70° S 04:53:20 10° E visible
28 Apr -1.4 02:27:50 15° ESE 02:27:50 15° ESE 02:28:45 10° E visible
28 Apr -3.6 04:00:47 25° WSW 04:02:32 60° SSE 04:05:53 10° E visible
29 Apr -3.5 03:14:54 47° S 03:15:08 48° SSE 03:18:25 10° E visible
29 Apr -3.8 04:48:27 10° W 04:51:50 78° S 04:55:13 10° E visible
30 Apr -2.2 02:28:59 27° ESE 02:28:59 27° ESE 02:30:54 10° E visible
30 Apr -3.8 04:01:55 17° W 04:04:22 76° S 04:07:45 10° E visible
1 May -1.0 01:43:02 12° E 01:43:02 12° E 01:43:20 10° E visible
1 May -3.9 03:15:58 44° WSW 03:16:53 70° S 03:20:15 10° E visible
1 May -3.7 04:50:16 10° W 04:53:38 68° S 04:57:00 10° ESE visible
